Charlottetown, Prince Edward Island

1:35 PM AST on December 18, 2017 (GMT -0400)
Charlottetown

Weather History for CYYG - March, 2012

Change the Weather History Date:

Saturday, March 24, 2012

  Actual Average Record
Temperature  
Mean Temperature 30 °F -  
Max Temperature 37 °F 41 °F 48 °F (1999)
Min Temperature 24 °F 27 °F 5 °F (2014)
Degree Days  
Heating Degree Days 34    
Moisture  
Dew Point 12 °F    
Average Humidity 48    
Maximum Humidity 74    
Minimum Humidity 24    
Precipitation  
Precipitation 0.00 in 0.12 in - ()
Sea Level Pressure  
Sea Level Pressure 29.95 in    
Wind  
Wind Speed 13 mph ()    
Max Wind Speed 21 mph    
Max Gust Speed 30 mph    
Visibility 15.0 miles    
Events Snow    
Averages and records for this station are not official NWS values.
T = Trace of Precipitation, MM = Missing Value Source: Averaged Metar Reports

Daily Weather History Graph

Daily Weather History Graph

Search for Another Location

Airport or City:

Trip Planner

Search our weather history database for the weather conditions in past years. The results will help you decide how hot, cold, wet, or windy it might be!

Date:

Astronomy

Mar. 24, 2012 Rise Set
Actual Time 7:06 AM ADT 7:31 PM ADT
Civil Twilight 6:36 AM ADT 8:01 PM ADT
Nautical Twilight 6:01 AM ADT 8:36 PM ADT
Astronomical Twilight 5:24 AM ADT 9:13 PM ADT
Moon 7:34 AM ADT (3/24) 9:57 PM ADT (3/24)
Length of Visible Light 13h 24m
Length of Day
12h 24m
Waxing Crescent, 4% of the Moon is Illuminated
Mar 24
Waxing Crescent
Mar 30
First Quarter
Apr 6
Full
Apr 13
Last Quarter
Apr 21
New

Hourly Weather History & Observations

Time (ADT) Temp. Windchill Dew Point Humidity Pressure Visibility Wind Dir Wind Speed Gust Speed Precip Events Conditions
12:00 AM 26.6 °F 13.1 °F 6.8 °F 43% 29.94 in 15.0 mi North 19.6 mph 28.8 mph N/A   Partly Cloudy
1:00 AM 28.4 °F 17.5 °F 8.6 °F 43% 29.94 in 15.0 mi North 13.8 mph 25.3 mph N/A   Mostly Cloudy
2:00 AM 28.4 °F 15.1 °F 10.4 °F 47% 29.94 in 15.0 mi NNW 20.7 mph 27.6 mph N/A   Mostly Cloudy
2:26 AM 28.4 °F 15.1 °F - N/A% - 15.0 mi NNW 20.7 mph 28.8 mph N/A Snow Light Snow Showers
3:00 AM 28 °F - 10 °F 33% 29.94 in 15 mi NNW 13.8 mph - - Snow Light Snow Showers
3:00 AM 28.4 °F 17.5 °F 10.4 °F 47% 29.94 in 15.0 mi NNW 13.8 mph 23.0 mph N/A Snow Light Snow Showers
4:00 AM 26.6 °F 15.2 °F 14.0 °F 59% 29.94 in 15.0 mi North 13.8 mph 21.9 mph N/A Snow Light Snow Showers
5:00 AM 26.6 °F 14.7 °F 14.0 °F 59% 29.96 in 15.0 mi North 15.0 mph 24.2 mph N/A Snow Light Snow Showers
6:00 AM 26.6 °F 16.8 °F 14.0 °F 59% 29.96 in 15.0 mi NNW 10.4 mph 19.6 mph N/A Snow Light Snow Showers
7:00 AM 24.8 °F 14.6 °F 15.8 °F 69% 29.97 in 15.0 mi North 10.4 mph 17.3 mph N/A Snow Light Snow Showers
8:00 AM 26.6 °F 15.2 °F 12.2 °F 55% 30.00 in 15.0 mi NNW 13.8 mph - N/A Snow Light Snow Showers
9:00 AM 27 °F - 11 °F 38% 30.00 in 15 mi NNW 15.0 mph - - Snow Light Snow Showers
9:00 AM 26.6 °F 14.3 °F 12.2 °F 55% 30.00 in 15.0 mi NW 16.1 mph 21.9 mph N/A Snow Light Snow Showers
10:00 AM 28.4 °F 15.4 °F 12.2 °F 51% 29.99 in 15.0 mi NNW 19.6 mph 29.9 mph N/A   Mostly Cloudy
11:00 AM 28.4 °F 16.6 °F 12.2 °F 51% 30.00 in 15.0 mi NW 16.1 mph 24.2 mph N/A   Partly Cloudy
12:00 PM 28.4 °F 17.0 °F 12.2 °F 51% 30.00 in 15.0 mi NNW 15.0 mph 23.0 mph N/A   Partly Cloudy
1:00 PM 30.2 °F 18.1 °F 12.2 °F 47% 29.98 in 15.0 mi NW 18.4 mph 25.3 mph N/A   Partly Cloudy
2:00 PM 32.0 °F 22.5 °F 12.2 °F 44% 29.96 in 15.0 mi NNW 12.7 mph 21.9 mph N/A   Partly Cloudy
3:00 PM 33 °F - 10 °F 24% 29.94 in 15 mi NW 15.0 mph - -   Partly Cloudy
3:00 PM 32.0 °F 20.8 °F 10.4 °F 41% 29.94 in 15.0 mi NW 17.3 mph 24.2 mph N/A   Partly Cloudy
4:00 PM 33.8 °F 24.3 °F 10.4 °F 38% 29.93 in 15.0 mi NNW 13.8 mph - N/A   Partly Cloudy
5:00 PM 35.6 °F 28.0 °F 12.2 °F 38% 29.91 in 15.0 mi NNW 10.4 mph 18.4 mph N/A   Partly Cloudy
6:00 PM 37.4 °F 31.4 °F 12.2 °F 36% 29.90 in 15.0 mi NNW 8.1 mph - N/A   Partly Cloudy
7:00 PM 33.8 °F 26.4 °F 10.4 °F 38% 29.91 in 15.0 mi NW 9.2 mph - N/A   Scattered Clouds
8:00 PM 32.0 °F 25.6 °F 10.4 °F 41% 29.91 in 15.0 mi NW 6.9 mph - N/A   Partly Cloudy
9:00 PM 31 °F - 17 °F 43% 29.94 in 15 mi North 9.2 mph - -   Clear
9:00 PM 32.0 °F 24.2 °F 17.6 °F 55% 29.94 in 15.0 mi North 9.2 mph - N/A   Partly Cloudy
10:00 PM 24.8 °F 17.9 °F 17.6 °F 74% 29.95 in 15.0 mi NNE 5.8 mph - N/A   Partly Cloudy
11:00 PM 24.8 °F 20.5 °F 17.6 °F 74% 29.95 in 15.0 mi West 3.5 mph - N/A   Partly Cloudy